TimeEDT,TemperatureF,Dew PointF,Humidity,Sea Level PressureIn,VisibilityMPH,Wind Direction,Wind SpeedMPH,Gust SpeedMPH,PrecipitationIn,Events,Conditions,WindDirDegrees,DateUTC
12:53 AM,39.0,25.0,57,30.32,10.0,Calm,Calm,-,N/A,,Clear,0,2013-03-10 05:53:00
1:53 AM,37.9,25.0,60,30.32,10.0,Calm,Calm,-,N/A,,Clear,0,2013-03-10 06:53:00
3:53 AM,37.0,24.1,59,30.29,10.0,Calm,Calm,-,N/A,,Clear,0,2013-03-10 07:53:00
4:53 AM,36.0,24.1,62,30.29,10.0,Calm,Calm,-,N/A,,Clear,0,2013-03-10 08:53:00
5:53 AM,36.0,24.1,62,30.31,10.0,Calm,Calm,-,N/A,,Clear,0,2013-03-10 09:53:00
6:53 AM,34.0,24.1,67,30.31,10.0,East,5.8,-,N/A,,Clear,80,2013-03-10 10:53:00
7:53 AM,37.0,24.1,59,30.31,10.0,Calm,Calm,-,N/A,,Clear,0,2013-03-10 11:53:00
8:53 AM,35.1,26.1,70,30.33,9.0,NNW,3.5,-,N/A,,Clear,330,2013-03-10 12:53:00
9:53 AM,41.0,30.0,65,30.33,10.0,East,4.6,-,N/A,,Clear,90,2013-03-10 13:53:00
10:53 AM,48.9,26.1,41,30.32,10.0,South,8.1,-,N/A,,Clear,170,2013-03-10 14:53:00
11:53 AM,55.0,25.0,31,30.31,10.0,South,16.1,-,N/A,,Clear,190,2013-03-10 15:53:00
12:53 PM,57.0,23.0,27,30.29,10.0,SSE,13.8,19.6,N/A,,Clear,160,2013-03-10 16:53:00
1:53 PM,59.0,23.0,25,30.26,10.0,South,12.7,21.9,N/A,,Clear,170,2013-03-10 17:53:00
2:53 PM,61.0,21.9,22,30.24,10.0,South,11.5,-,N/A,,Clear,170,2013-03-10 18:53:00
3:53 PM,61.0,21.9,22,30.23,10.0,South,13.8,20.7,N/A,,Clear,180,2013-03-10 19:53:00
4:53 PM,62.1,23.0,22,30.22,10.0,South,12.7,-,N/A,,Clear,170,2013-03-10 20:53:00
5:53 PM,61.0,21.9,22,30.21,10.0,SSE,16.1,-,N/A,,Clear,160,2013-03-10 21:53:00
6:53 PM,57.9,23.0,26,30.21,10.0,SE,9.2,-,N/A,,Clear,140,2013-03-10 22:53:00
7:53 PM,55.0,21.9,28,30.23,10.0,SSE,9.2,-,N/A,,Clear,150,2013-03-10 23:53:00
8:53 PM,54.0,21.0,28,30.22,10.0,SSE,10.4,-,N/A,,Clear,150,2013-03-11 00:53:00
9:53 PM,53.1,21.0,29,30.23,10.0,SSE,10.4,-,N/A,,Clear,150,2013-03-11 01:53:00
10:53 PM,51.1,21.0,31,30.22,10.0,SSE,5.8,-,N/A,,Clear,150,2013-03-11 02:53:00
11:53 PM,48.9,21.0,33,30.22,10.0,SSE,9.2,-,N/A,,Clear,160,2013-03-11 03:53:00
12:53 AM,48.0,21.9,36,30.19,10.0,SSE,9.2,-,N/A,,Clear,150,2013-03-11 04:53:00